Sturgeon Bay, WI

9:27 AM CDT on May 26, 2018 (GMT -0500)
Door County Cherryland

Weather History for KSUE - November, 2011

Change the Weather History Date:

Monday, November 7, 2011

  Actual Average Record
Temperature  
Mean Temperature 47 °F -  
Max Temperature 55 °F 45 °F 65 °F (1949)
Min Temperature 39 °F 30 °F 11 °F (1991)
Degree Days  
Heating Degree Days 18    
Moisture  
Dew Point 26 °F    
Average Humidity 47    
Maximum Humidity 70    
Minimum Humidity 25    
Precipitation  
Precipitation 0.00 in - - ()
Sea Level Pressure  
Sea Level Pressure 30.15 in    
Wind  
Wind Speed 11 mph (SW)    
Max Wind Speed 18 mph    
Max Gust Speed 26 mph    
Visibility 10 miles    
Events      
Averages and records for this station are not official NWS values.
T = Trace of Precipitation, MM = Missing Value Source: NWS Daily Summary

Daily Weather History Graph

Daily Weather History Graph

Search for Another Location

Airport or City:

Astronomy

Nov. 07, 2011 Rise Set
Actual Time 6:35 AM CST 4:30 PM CST
Civil Twilight 6:04 AM CST 5:01 PM CST
Nautical Twilight 5:29 AM CST 5:36 PM CST
Astronomical Twilight 4:55 AM CST 6:10 PM CST
Moon 2:45 PM CST (11/7) 3:32 AM CST (11/7)
Length of Visible Light 10h 56m
Length of Day
9h 54m
Waxing Gibbous, 92% of the Moon is Illuminated
Nov 7
Waxing Gibbous
Nov 10
Full
Nov 18
Last Quarter
Nov 25
New
Dec 2
First Quarter

Hourly Weather History & Observations

Time (CST) Temp. Windchill Dew Point Humidity Pressure Visibility Wind Dir Wind Speed Gust Speed Precip Events Conditions
12:35 AM 48.2 °F - 33.8 °F 58% 30.04 in 10.0 mi WSW 13.8 mph 18.4 mph N/A   Clear
12:55 AM 48.2 °F - 32.0 °F 54% 30.05 in 10.0 mi WSW 12.7 mph 19.6 mph N/A   Clear
1:35 AM 46.4 °F 41.5 °F 32.0 °F 57% 30.06 in 10.0 mi WSW 10.4 mph 17.3 mph N/A   Clear
1:55 AM 46.4 °F 41.9 °F 30.2 °F 53% 30.07 in 10.0 mi SW 9.2 mph - N/A   Clear
2:15 AM 44.6 °F 40.2 °F 30.2 °F 57% 30.06 in 10.0 mi SW 8.1 mph - N/A   Clear
2:55 AM 42.8 °F 38.0 °F 30.2 °F 61% 30.06 in 10.0 mi SW 8.1 mph - N/A   Clear
3:15 AM 42.8 °F 37.5 °F 30.2 °F 61% 30.07 in 10.0 mi SSW 9.2 mph - N/A   Clear
3:35 AM 41.0 °F 35.2 °F 30.2 °F 65% 30.07 in 10.0 mi South 9.2 mph - N/A   Clear
3:55 AM 41.0 °F 35.2 °F 30.2 °F 65% 30.08 in 10.0 mi SSW 9.2 mph - N/A   Clear
4:35 AM 39.2 °F 32.5 °F 30.2 °F 70% 30.09 in 10.0 mi SSW 10.4 mph - N/A   Clear
4:55 AM 39.2 °F 32.5 °F 28.4 °F 65% 30.09 in 10.0 mi SSW 10.4 mph - N/A   Clear
5:15 AM 39.2 °F 32.0 °F 28.4 °F 65% 30.09 in 10.0 mi SSW 11.5 mph - N/A   Clear
5:35 AM 39.2 °F 32.0 °F 30.2 °F 70% 30.10 in 10.0 mi SSW 11.5 mph - N/A   Clear
5:55 AM 41.0 °F 34.3 °F 28.4 °F 61% 30.10 in 10.0 mi SSW 11.5 mph - N/A   Clear
6:15 AM 41.0 °F 34.3 °F 28.4 °F 61% 30.10 in 10.0 mi SSW 11.5 mph 17.3 mph N/A   Clear
6:35 AM 41.0 °F 33.9 °F 30.2 °F 65% 30.11 in 10.0 mi SSW 12.7 mph - N/A   Clear
7:15 AM 42.8 °F 36.2 °F 28.4 °F 57% 30.12 in 10.0 mi SSW 12.7 mph - N/A   Clear
7:35 AM 42.8 °F 36.6 °F 28.4 °F 57% 30.13 in 10.0 mi SSW 11.5 mph - N/A   Clear
9:15 AM 48.2 °F - 28.4 °F 46% 30.16 in 10.0 mi WSW 16.1 mph 21.9 mph N/A   Clear
9:35 AM 48.2 °F - 28.4 °F 46% 30.17 in 10.0 mi WSW 15.0 mph 26.5 mph N/A   Clear
9:55 AM 48.2 °F - 26.6 °F 43% 30.16 in 10.0 mi WSW 11.5 mph 20.7 mph N/A   Clear
10:15 AM 50.0 °F - 28.4 °F 43% 30.17 in 10.0 mi SW 16.1 mph 23.0 mph N/A   Clear
10:35 AM 50.0 °F - 26.6 °F 40% 30.17 in 10.0 mi WSW 15.0 mph 23.0 mph N/A   Clear
10:55 AM 51.8 °F - 26.6 °F 38% 30.17 in 10.0 mi WSW 16.1 mph 23.0 mph N/A   Clear
11:15 AM 51.8 °F - 28.4 °F 41% 30.17 in 10.0 mi WSW 13.8 mph 19.6 mph N/A   Clear
11:35 AM 51.8 °F - 26.6 °F 38% 30.16 in 10.0 mi WSW 18.4 mph 24.2 mph N/A   Clear
11:55 AM 53.6 °F - 26.6 °F 35% 30.15 in 10.0 mi WSW 17.3 mph 20.7 mph N/A   Clear
12:15 PM 53.6 °F - 26.6 °F 35% 30.15 in 10.0 mi WSW 18.4 mph 21.9 mph N/A   Clear
12:35 PM 53.6 °F - 26.6 °F 35% 30.13 in 10.0 mi SW 17.3 mph 23.0 mph N/A   Clear
12:55 PM 53.6 °F - 24.8 °F 33% 30.13 in 10.0 mi WSW 18.4 mph - N/A   Clear
2:35 PM 55.4 °F - 21.2 °F 26% 30.15 in 10.0 mi WSW 18.4 mph 23.0 mph N/A   Clear
2:55 PM 55.4 °F - 19.4 °F 25% 30.15 in 10.0 mi WSW 12.7 mph 21.9 mph N/A   Clear
3:15 PM 55.4 °F - 19.4 °F 25% 30.15 in 10.0 mi WSW 15.0 mph - N/A   Clear
3:35 PM 53.6 °F - 19.4 °F 26% 30.16 in 10.0 mi WSW 11.5 mph - N/A   Clear
3:55 PM 53.6 °F - 19.4 °F 26% 30.17 in 10.0 mi SW 9.2 mph - N/A   Clear
4:15 PM 51.8 °F - 21.2 °F 30% 30.17 in 10.0 mi WSW 8.1 mph - N/A   Clear
4:35 PM 50.0 °F - 21.2 °F 32% 30.18 in 10.0 mi WSW 8.1 mph - N/A   Clear
4:55 PM 48.2 °F - 21.2 °F 34% 30.18 in 10.0 mi SW 5.8 mph - N/A   Clear
5:15 PM 48.2 °F - 19.4 °F 32% 30.19 in 10.0 mi SW 4.6 mph - N/A   Clear
6:35 PM 44.6 °F 41.4 °F 23.0 °F 43% 30.21 in 10.0 mi SW 5.8 mph - N/A   Clear
6:55 PM 44.6 °F 42.2 °F 24.8 °F 46% 30.21 in 10.0 mi SW 4.6 mph - N/A   Clear
7:35 PM 44.6 °F 41.4 °F 23.0 °F 43% 30.22 in 10.0 mi SW 5.8 mph - N/A   Clear
7:55 PM 44.6 °F 41.4 °F 21.2 °F 39% 30.22 in 10.0 mi SW 5.8 mph - N/A   Clear
8:35 PM 42.8 °F 39.3 °F 23.0 °F 46% 30.24 in 10.0 mi SW 5.8 mph - N/A   Clear
8:55 PM 42.8 °F 39.3 °F 24.8 °F 49% 30.24 in 10.0 mi SW 5.8 mph - N/A   Clear
9:15 PM 42.8 °F 39.3 °F 23.0 °F 46% 30.24 in 10.0 mi WSW 5.8 mph - N/A   Clear
9:55 PM 42.8 °F 40.1 °F 24.8 °F 49% 30.22 in 10.0 mi West 4.6 mph - N/A   Clear
10:15 PM 41.0 °F 38.0 °F 24.8 °F 53% 30.21 in 10.0 mi West 4.6 mph - N/A   Clear
10:55 PM 42.8 °F 41.1 °F 26.6 °F 53% 30.22 in 10.0 mi West 3.5 mph - N/A   Clear
11:15 PM 41.0 °F 39.0 °F 26.6 °F 57% 30.22 in 10.0 mi WNW 3.5 mph - N/A   Clear
11:35 PM 41.0 °F 38.0 °F 26.6 °F 57% 30.22 in 10.0 mi WNW 4.6 mph - N/A   Clear
11:55 PM 44.6 °F 42.2 °F 28.4 °F 53% 30.22 in 10.0 mi NW 4.6 mph - N/A   Clear